Terminal Aerodrome Forecast
Issued by NWS Cleveland, OH

Home | Current Version | Previous Version | Graphics & Text | Print | Product List | Glossary On
Versions: 1 2 3 4 5 6 7 8 9 10 11 12 13 14 15 16 17 18 19 20 21 22 23 24 25 26 27 28
644
FTUS41 KCLE 191700 RRA
TAFCLE
TAF
KCLE 191746Z 1918/2024 30011KT P6SM OVC035
     FM200500 36010KT P6SM BKN035
     FM201500 01010KT P6SM FEW035 BKN250=

USA.gov is the U.S. government's official web portal to all federal, state and local government web resources and services.